AirNav   Everest Fuels
 
 897 users online  

PA62 Temple University Heliport
Philadelphia, Pennsylvania, USA

GOING TO PHILADELPHIA?


FAA INFORMATION EFFECTIVE 02 JANUARY 2020

Location

FAA Identifier: PA62
Lat/Long: 40-00-20.5400N 075-09-00.5200W
40-00.342333N 075-09.008667W
40.0057056,-75.1501444
(estimated)
Elevation: 183 ft. / 56 m (estimated)
Variation: 11W (1985)
Time zone: UTC -5 (UTC -4 during Daylight Saving Time)
Zip code: 19140

Heliport Operations

Heliport use: Private use, MEDICAL USE.
Activation date: 11/1990
Control tower: no
ARTCC: NEW YORK CENTER
FSS: WILLIAMSPORT FLIGHT SERVICE STATION
Attendance: CONTINUOUS
Wind indicator: lighted
Segmented circle: no
Lights: SS-SR

Heliport Communications

WX ASOS at PNE (8 nm NE): 121.15 (215-677-0146)
WX ASOS at PHL (9 nm SW): PHONE 215-492-9617
WX AWOS-3 at LOM (10 nm NW): 118.925 (215-646-1068)
WX ASOS at VAY (14 nm E): 119.325 (609-267-1176)
WX ASOS at DYL (20 nm N): 118.875 (215-345-0392)
WX AWOS-3T at OQN (20 nm W): 121.4 ((610) 692-6190)

Nearby radio navigation aids

VOR radial/distance  VOR name  Freq  Var
ARDr227/18.6YARDLEY VOR/DME108.2010W
PTWr134/22.9POTTSTOWN VORTAC116.5009W
OODr028/23.3WOODSTOWN VORTAC112.8010W
MXEr087/24.5MODENA VORTAC113.2009W
GXUr281/25.4MC GUIRE VORTAC110.6012W
DQOr057/28.8DUPONT VORTAC114.0010W
VCNr353/29.3CEDAR LAKE VOR/DME115.2010W
RBVr259/32.3ROBBINSVILLE VORTAC113.8010W
CYNr299/34.9COYLE VORTAC113.4010W
SBJr218/39.4SOLBERG VOR/DME112.9010W

 
NDB name  Hdg/Dist  Freq  Var  ID
AMBLER151/9.527512WING .. -. --.
RAINBOW010/35.336311WRNB .-. -. -...
LAKEHURST277/37.539611WNEL -. . .-..

Heliport Services

Runway Information

Helipad H1

Dimensions: 46 x 46 ft. / 14 x 14 m
Surface: ROOF/TOP
Runway edge lights: medium intensity
Latitude: 40-00.342333N
Longitude: 075-09.008667W
Elevation: 183.0 ft.
Traffic pattern: leftleft

Heliport Ownership and Management from official FAA records

Ownership: Privately-owned
Owner: TEMPLE UNIVERSITY HOSPITAL
3401 N BROAD ST
PHILADELPHIA, PA 19140
Phone 215-707-4533
Manager: SHANE MCDEVITT
3401 N BROAD ST
PHILADELPHIA, PA 19140
Phone (215) 707-9678

Heliport Operational Statistics

Aircraft based on the field: 1
Multi engine airplanes: 1
    

Additional Remarks

A52-H1 187 FT BLDG 265 FT NW; 35 FT SMOKESTACK 170 DEG SW.
FOR CD CTC PHILADELPHIA APCH AT 800-354-9884.

Instrument Procedures

There are no published instrument procedures at PA62.

Some nearby airports with instrument procedures:

KPNE - Northeast Philadelphia Airport (8 nm NE)
KPHL - Philadelphia International Airport (9 nm SW)
KLOM - Wings Field Airport (10 nm NW)
KVAY - South Jersey Regional Airport (14 nm E)
N14 - Flying W Airport (16 nm E)
19N - Camden County Airport (17 nm SE)
N10 - Perkiomen Valley Airport (18 nm NW)
17N - Cross Keys Airport (19 nm S)
KDYL - Doylestown Airport (20 nm N)
7N7 - Spitfire Aerodrome (20 nm SW)
 
Loc | Ops | Rwys | IFR | FBO | Links
Com | Nav | Svcs | Stats | Notes
Area around PA62 (Temple University Heliport)
 
Road maps at: MapQuest Bing Google
 
Aerial photo
No photo
 
Sectional chart

 
Airport distance calculator
Flying to Temple University Heliport? Find the distance to fly.

From to PA62

Sunrise and sunset
Times for 20-Jan-2020
 Local
(UTC-5)
 Zulu
(UTC)
Morning civil twilight06:5011:50
Sunrise07:1912:19
Sunset17:0422:04
Evening civil twilight17:3422:34

Current date and time
Zulu (UTC)  20-Jan-2020 06:14:36
Local (UTC-5)  20-Jan-2020 01:14:36
 
METAR
KPNE 
8nm NE 
200554Z AUTO 30009G17KT 10SM SCT040 SCT050 M03/M11 A3008 RMK AO2 SLP188 T10281111 10000 21028 53012 $
KPHL 
9nm SW 
200554Z 31011KT 10SM SCT060 M03/M12 A3009 RMK AO2 SLP190 T10331122 10000 21033 51009 $
KLOM 
10nm NW 
200555Z AUTO 30010KT 10SM SCT039 M04/M11 A3006 RMK AO2 T10431108 11016 21044
KVAY 
15nm E 
ASOS 119.325 609-267-1176
200554Z AUTO 30009G19KT 10SM SCT055 M03/M11 A3007 RMK AO2 SLP184 T10281111 10000 21033 53010 $
KDYL 
20nm N 
200554Z AUTO 31012G21KT 10SM OVC040 M03/M11 A3004 RMK AO2 SLP180 T10331106 11011 21039 51014
KOQN 
20nm W 
200555Z AUTO 28009G18KT 10SM CLR M03/M11 A3007 RMK AO2
TAF
KPNE 
8nm NE 
191720Z 1918/2018 30014G26KT P6SM SCT045 FM192300 31010G18KT P6SM SCT045 FM201400 34012G22KT P6SM SKC
KPHL 
9nm SW 
200259Z 2003/2106 30011KT P6SM SCT045 FM200600 32012KT P6SM FEW045 FM201200 33012G20KT P6SM SKC FM202300 34006KT P6SM SKC
NOTAMs
Click for the latest NOTAMs
NOTAMs are issued by the DoD/FAA and will open in a separate window not controlled by AirNav.

 

 
 

Would you like to see your business listed on this page?

 If your business provides an interesting product or service to pilots, flight crews, aircraft, or users of the Temple University Heliport, you should consider listing it here.  To start the listing process, click on the button below
 
Add a business
 

Other Pages about Temple University Heliport

Update a link
 
Copyright © AirNav, LLC. All rights reserved. Privacy Policy  Contact